Torna al catalogo

STARLINK-37393

AttivoComunicazioniSSO
NORAD 68776·PAYLOAD·🇺🇸 United States

Lanciato Apr 19, 2026 da Vandenberg Space Force Base

Loading…

Prossimi Passaggi (prossime 24 ore)

TLE

AggiornatoSource: CelesTrak SupGP

Epoca: Sep 14, 2026, 21:00 UTC

1 68776C 26086L   26257.87548611  .00006188  00000+0  19214-3 0  2577
2 68776  97.2840 293.3865 0001312  93.4897 244.5821 15.33425048    11

Traccia STARLINK-37393 in tempo reale con AllMySat

Download on the App Store